Regional Weather Roundup
Issued by NWS

Home | Current Version | Previous Version | Text Only | Print | Product List | Glossary Off
Versions: 1 2 3 4 5 6 7 8 9 10 11 12 13 14 15 16 17 18 19 20 21 22 23 24 25 26 27 28 29 30 31 32 33 34 35 36 37 38 39 40 41 42 43 44 45 46 47 48 49 50

000
ASUS43 KLOT 310510
RWRIL

ILLINOIS REGIONAL WEATHER ROUNDUP
NATIONAL WEATHER SERVICE CHICAGO/ROMEOVILLE IL
1200 AM CDT THU JUL 31 2014

NOTE: "FAIR" INDICATES FEW OR NO CLOUDS BELOW 12,000 FEET WITH NO
SIGNIFICANT WEATHER AND/OR OBSTRUCTIONS TO VISIBILITY.

* THESE STATIONS ARE NOT UNDER NWS QUALITY CONTROL. THEY ALSO MAY NOT
  REPORT WEATHER SUCH AS PRECIPITATION OR FOG.

ILZ001-002-007-009-015-016-024-310600-
NORTHWEST ILLINOIS

CITY           SKY/WX    TMP DP  RH WIND       PRES   REMARKS
MOLINE         CLEAR     62  58  86 CALM      30.06R
STERLING*      CLEAR     59  54  82 CALM      30.06S
SAVANNA*       CLEAR     60  57  89 CALM      30.05S
$$

ILZ003-004-008-010-011-017-018-310600-
NORTH CENTRAL ILLINOIS

CITY           SKY/WX    TMP DP  RH WIND       PRES   REMARKS
ROCKFORD       CLEAR     61  55  81 CALM      30.07R
FREEPORT*      CLEAR     57  55  90 CALM      30.07S
ROCHELLE*      CLEAR     57  55  91 CALM      30.06R
DE KALB*       CLEAR     60  54  83 NW3       30.05F
PERU*          CLEAR     61  58  88 W8        30.06R
$$

ILZ005-006-012>014-019>023-310600-
NORTHEAST ILLINOIS

CITY           SKY/WX    TMP DP  RH WIND       PRES   REMARKS
CHICAGO-OHARE  CLEAR     63  55  75 S6        30.03F
CHICAGO-MIDWAY CLEAR     66  61  84 SE3       30.03F
AURORA         CLEAR     58  55  90 CALM      30.04S
LANSING*       CLEAR     59  56  91 CALM      30.04S FOG
JOLIET*        CLEAR     60  57  89 CALM      30.05S FOG
WAUKEGAN       CLEAR     59  56  89 SW6       30.03S
DUPAGE AIRPORT CLEAR     62  58  86 CALM      30.03F
KANKAKEE*      CLEAR     61  60  94 CALM      30.06R
WHEELING       CLEAR     62  57  83 CALM      30.05S
MORRIS*        CLEAR     62  60  94 CALM      30.04S
ROMEOVILLE*    CLEAR     61  56  85 CALM      30.04S
NORTHERLY ISL    N/A     64  60  87 S3          N/A
$$

LMZ740>746-310600-
SOUTHERN LAKE MICHIGAN

STATION/POSITION SKY/WX   TEMP    WIND        PRES    VSBY  WAVE
                          AIR SEA DIR/SP/G                  HT/PER
                          (F)     (DEG/KT/KT) (MB)    (MI)  (FT/S)
SOUTHERN BUOY              61 60  180/  4/  6 1016.7F         0
WAUKEGAN HARBOR            63     210/  6/  7   N/A
HARRISON CRIB              64     170/  8/  9   N/A
BURNHAM HARBOR             64     180/  2/  5   N/A
CALUMET HARBOR             65     100/  2/  2 1016.0F
MICHIGAN CITY              63     130/  3/  4   N/A
MICHIGAN CITY 6N           65 69  160/  2/  4   N/A           1/ 3
ST. JOSEPH                 65 69  160/  6/  6   N/A           1
$$

ILZ025>027-034>036-040-047-049-050-058-095>099-310600-
WEST-CENTRAL ILLINOIS

CITY           SKY/WX    TMP DP  RH WIND       PRES   REMARKS
QUINCY         CLEAR     63  58  83 CALM      30.09R
GALESBURG*     CLEAR     61  59  94 CALM      30.07S
MACOMB*          N/A     58  58  97 W3        30.09S
JACKSONVILLE*  CLEAR     63  62  95 CALM      30.09R
PITTSFIELD*    CLEAR     62  60  91 CALM      30.09S
$$

ILZ028>032-037-038-041>044-048-051>054-059>061-310600-
CENTRAL ILLINOIS

CITY           SKY/WX    TMP DP  RH WIND       PRES   REMARKS
PONTIAC        CLEAR     61  59  94 CALM      30.06R
DECATUR        CLEAR     64  59  83 CALM      30.07S
PEORIA         CLEAR     66  59  78 N3        30.06S
LACON*         CLEAR     61  58  90 CALM      30.05S
LINCOLN*       CLEAR     63  59  87 CALM      30.05R
SPRINGFIELD    CLEAR     62  59  90 CALM      30.08R
TAYLORVILLE    CLEAR     59  59 100 CALM      30.08R
$$

ILZ033-039-045-046-055>057-062-063-310600-
EAST-CENTRAL ILLINOIS

CITY           SKY/WX    TMP DP  RH WIND       PRES   REMARKS
CHAMPAIGN      CLEAR     62  59  90 W3        30.07R
DANVILLE*      CLEAR     59  58  97 CALM      30.03S
RANTOUL*       CLEAR     65  59  81 W5        30.07S
MATTOON        CLEAR     63  59  87 CALM      30.07R
PARIS*         CLEAR     59  58  97 CALM      30.07S
$$

ILZ079-100>102-310600-
SOUTHWEST ILLINOIS

CITY           SKY/WX    TMP DP  RH WIND       PRES   REMARKS
ALTON          PTCLDY    63  63 100 CALM      30.08S
BELLEVILLE     PTCLDY    65  63  94 CALM      30.07S
CAHOKIA*       PTCLDY    66  62  87 CALM      30.07S
SPARTA*        MOCLDY    61  59  94 CALM      30.09R
$$

ILZ064>066-069>071-074>076-080>082-084>086-088>090-092>094-310600-
SOUTH-CENTRAL ILLINOIS

CITY           SKY/WX    TMP DP  RH WIND       PRES   REMARKS
CARBONDALE     MOCLDY    62  60  93 CALM      30.08R
CAIRO*         PTCLDY    66  62  87 CALM      30.08R
EFFINGHAM*     PTCLDY    65  58  80 CALM      30.08S
MARION         MOCLDY    64  63  94 CALM      30.08S
MT. VERNON     MOCLDY    63  55  77 CALM      30.09S
CENTRALIA*     PTCLDY    61  59  91 CALM      30.08S
SALEM*         PTCLDY   N/A N/A N/A CALM      30.09S
METROPOLIS*    MOCLDY    61  59  91 CALM      30.07S
$$

ILZ067-068-072-073-078-083-087-091-310600-
SOUTHEAST ILLINOIS

CITY           SKY/WX    TMP DP  RH WIND       PRES   REMARKS
LAWRENCEVILLE  PTCLDY    65  61  87 W5        30.07S
FLORA*         PTCLDY    62  60  93 W3        30.08S
FAIRFIELD*     MOCLDY    63  61  94 CALM      30.08S
HARRISBURG*    MOCLDY    61  61 100 CALM      30.09S
ROBINSON*      PTCLDY    64  61  91 SW5       30.08R
CARMI*         MOCLDY    63  63 100 CALM      30.07S
$$

ABBREVIATIONS USED IN REMARKS
   TC - TEMPERATURE IN CELSIUS
  WCI - WIND CHILL INDEX
   HX - HEAT INDEX
  VSB - VISIBILITY
$$




USA.gov is the U.S. government's official web portal to all federal, state and local government web resources and services.